Location: Amanico Ergina Village
(37.7824°N, 122.4366°W)
Time: 21:13:51
(UTC+00:00)

SAR-Lupe-4 - Pass Details

Date: 29 October 2020
Orbit: 481 x 484 km, 98.2° (Epoch: 22 November)

Event Time Altitude Azimuth Distance (km) Brightness Sun altitude
Rises 13:30:15 0° 179° (S) 2,532 7.3 -12.9°
Reaches altitude 10° 13:32:21 10° 185° (S) 1,656 6.3 -12.5°
Maximum altitude 13:35:47 46° 260° (W) 656 3.8 -11.8°
Drops below altitude 10° 13:39:15 10° 335° (NNW) 1,667 6.0 -11.1°
Sets 13:41:23 0° 341° (NNW) 2,551 6.9 -10.7°
